FW4466 Weather Reports


Display with metric or nautical units.
time (UTC)temp
F
wind
direction
speed
MPH
gust
MPH
rain 1hr
in
rain 24hr
in
rain mn
in
humidity
%
barometer
mb
20220119203213 80 238 2.0 7.0 0.00 0.00 0.00 39 1010.4
20220119202713 80 269 3.0 10.0 0.00 0.00 0.00 39 1010.4
20220119202213 80 263 4.0 10.0 0.00 0.00 0.00 38 1010.4
20220119201711 80 214 3.0 9.0 0.00 0.00 0.00 38 1010.4
20220119201217 80 247 2.0 8.0 0.00 0.00 0.00 39 1010.5
20220119200711 80 263 3.0 8.0 0.00 0.00 0.00 40 1010.6
20220119200211 79 233 3.0 8.0 0.00 0.00 0.00 38 1010.6
20220119195709 80 220 2.0 8.0 0.00 0.00 0.00 40 1010.8
20220119195207 79 259 2.0 7.0 0.00 0.00 0.00 41 1010.8
20220119194712 78 231 2.0 7.0 0.00 0.00 0.00 42 1010.8
20220119194208 78 239 2.0 7.0 0.00 0.00 0.00 42 1010.8
20220119193707 79 209 2.0 7.0 0.00 0.00 0.00 42 1010.9
20220119193211 79 248 2.0 7.0 0.00 0.00 0.00 43 1010.9
20220119192706 79 269 2.0 7.0 0.00 0.00 0.00 44 1011.0
20220119192156 78 229 2.0 6.0 0.00 0.00 0.00 48 1011.1
20220119191654 78 229 1.0 6.0 0.00 0.00 0.00 50 1011.3
20220119191145 77 230 2.0 7.0 0.00 0.00 0.00 53 1011.3
20220119190644 77 229 2.0 7.0 0.00 0.00 0.00 53 1011.5
20220119190145 76 236 2.0 7.0 0.00 0.00 0.00 53 1011.6
20220119185645 75 219 2.0 7.0 0.00 0.00 0.00 57 1011.6
20220119185145 75 219 2.0 7.0 0.00 0.00 0.00 59 1011.6
20220119184644 75 253 2.0 6.0 0.00 0.00 0.00 57 1011.7
20220119184144 75 253 2.0 7.0 0.00 0.00 0.00 58 1011.8
20220119183645 75 242 1.0 7.0 0.00 0.00 0.00 58 1012.0
20220119183147 75 232 2.0 7.0 0.00 0.00 0.00 61 1012.2
20220119182648 75 213 2.0 6.0 0.00 0.00 0.00 61 1012.3
20220119182144 75 231 2.0 5.0 0.00 0.00 0.00 63 1012.3
20220119181643 74 216 2.0 5.0 0.00 0.00 0.00 64 1012.5
20220119181144 74 215 2.0 5.0 0.00 0.00 0.00 66 1012.5
20220119180647 73 215 2.0 6.0 0.00 0.00 0.00 68 1012.6
20220119180144 73 215 2.0 6.0 0.00 0.00 0.00 68 1012.7
20220119175640 72 215 3.0 11.0 0.00 0.00 0.00 69 1012.9
20220119175141 72 215 3.0 11.0 0.00 0.00 0.00 70 1012.9
20220119174640 72 221 2.0 7.0 0.00 0.00 0.00 71 1013.0
20220119174136 72 218 3.0 6.0 0.00 0.00 0.00 72 1013.0
20220119173635 71 234 3.0 11.0 0.00 0.00 0.00 73 1013.1
20220119173136 71 221 3.0 11.0 0.00 0.00 0.00 72 1013.3
20220119172635 71 248 2.0 7.0 0.00 0.00 0.00 73 1013.4
20220119172134 71 223 2.0 8.0 0.00 0.00 0.00 74 1013.5
20220119171635 70 204 3.0 8.0 0.00 0.00 0.00 75 1013.5
20220119171141 70 238 3.0 8.0 0.00 0.00 0.00 76 1013.5
20220119170637 69 218 3.0 7.0 0.00 0.00 0.00 77 1013.5
20220119170136 69 240 3.0 7.0 0.00 0.00 0.00 77 1013.6
20220119165641 69 226 2.0 7.0 0.00 0.00 0.00 78 1013.6
20220119165136 68 225 2.0 8.0 0.00 0.00 0.00 79 1013.6
20220119164639 68 226 3.0 8.0 0.00 0.00 0.00 80 1013.7
20220119164141 67 210 2.0 5.0 0.00 0.00 0.00 80 1013.8
20220119163635 67 215 1.0 4.0 0.00 0.00 0.00 81 1013.8
20220119163132 66 214 1.0 6.0 0.00 0.00 0.00 82 1013.8
20220119162637 66 213 1.0 6.0 0.00 0.00 0.00 82 1013.8
20220119162130 66 261 1.0 5.0 0.00 0.00 0.00 82 1013.8
20220119161631 66 263 0.0 4.0 0.00 0.00 0.00 83 1013.9
20220119161128 65 263 0.0 4.0 0.00 0.00 0.00 84 1013.8
20220119160636 65 263 0.0 4.0 0.00 0.00 0.00 85 1014.0
20220119160129 64 264 0.0 2.0 0.00 0.00 0.00 85 1014.1
20220119155627 64 265 0.0 3.0 0.00 0.00 0.00 86 1013.9
20220119155125 64 265 0.0 3.0 0.00 0.00 0.00 86 1013.9
20220119154625 63 265 1.0 4.0 0.00 0.00 0.00 86 1013.8
20220119154126 63 265 1.0 5.0 0.00 0.00 0.00 87 1013.9
20220119153625 63 265 2.0 6.0 0.00 0.00 0.00 87 1014.1
20220119153124 63 265 2.0 6.0 0.00 0.00 0.00 87 1014.0
20220119152634 63 234 2.0 6.0 0.00 0.00 0.00 88 1014.0
20220119152125 63 233 1.0 5.0 0.00 0.00 0.00 89 1013.8
20220119151631 63 233 1.0 5.0 0.00 0.00 0.00 89 1013.7
20220119151124 63 233 1.0 5.0 0.00 0.00 0.00 89 1013.7
20220119150624 63 232 2.0 5.0 0.00 0.00 0.00 89 1013.5
20220119150129 63 232 1.0 5.0 0.00 0.00 0.00 89 1013.5
20220119145625 63 232 1.0 5.0 0.00 0.00 0.00 89 1013.3
20220119145122 63 232 1.0 4.0 0.00 0.00 0.00 89 1013.3
20220119144622 63 232 1.0 4.0 0.00 0.00 0.00 89 1013.1
20220119144123 63 232 1.0 6.0 0.00 0.00 0.00 89 1013.1
20220119143622 63 237 1.0 6.0 0.00 0.00 0.00 89 1012.9
20220119143127 63 248 1.0 5.0 0.00 0.00 0.00 89 1012.8
20220119142620 63 251 1.0 5.0 0.00 0.00 0.00 89 1012.8
20220119142118 63 252 1.0 4.0 0.00 0.00 0.00 89 1012.6
20220119141619 63 252 1.0 3.0 0.00 0.00 0.00 89 1012.7
20220119141117 63 252 1.0 3.0 0.00 0.00 0.00 89 1012.7
20220119140617 63 252 0.0 3.0 0.00 0.00 0.00 89 1012.7
20220119140118 63 252 0.0 3.0 0.00 0.00 0.00 89 1012.6
20220119135619 63 252 0.0 3.0 0.00 0.00 0.00 89 1012.6
20220119135115 63 252 0.0 3.0 0.00 0.00 0.00 89 1012.6
20220119134613 63 252 0.0 3.0 0.00 0.00 0.00 89 1012.6
20220119134121 63 252 1.0 3.0 0.00 0.00 0.00 89 1012.5
20220119133616 63 252 1.0 4.0 0.00 0.00 0.00 89 1012.5
20220119133116 63 252 1.0 4.0 0.00 0.00 0.00 89 1012.5
20220119132617 63 252 1.0 4.0 0.00 0.00 0.00 89 1012.4
20220119132111 63 252 1.0 4.0 0.00 0.00 0.00 89 1012.4
20220119131609 63 252 1.0 4.0 0.00 0.00 0.00 89 1012.2
20220119131109 63 252 1.0 4.0 0.00 0.00 0.00 89 1012.2
20220119130612 62 252 1.0 4.0 0.00 0.00 0.00 89 1012.1
20220119130115 62 252 1.0 3.0 0.00 0.00 0.00 89 1012.2
20220119125607 62 252 0.0 4.0 0.00 0.00 0.00 89 1012.0
20220119125102 62 252 0.0 4.0 0.00 0.00 0.00 89 1012.0
20220119124602 62 252 0.0 1.0 0.00 0.00 0.00 89 1011.7
20220119124103 62 252 0.0 0.0 0.00 0.00 0.00 89 1011.7
20220119123605 62 252 0.0 2.0 0.00 0.00 0.00 89 1011.6
20220119123100 62 252 0.0 3.0 0.00 0.00 0.00 89 1011.5
20220119122600 63 252 0.0 3.0 0.00 0.00 0.00 89 1011.5
20220119122100 63 252 0.0 2.0 0.00 0.00 0.00 89 1011.5
20220119121601 63 252 0.0 3.0 0.00 0.00 0.00 88 1011.5
20220119121055 63 252 0.0 4.0 0.00 0.00 0.00 88 1011.5
20220119120552 63 252 0.0 4.0 0.00 0.00 0.00 88 1011.2
20220119120052 63 252 0.0 4.0 0.00 0.00 0.00 88 1011.1
20220119115553 63 252 1.0 4.0 0.00 0.00 0.00 88 1011.1
20220119115050 63 252 1.0 4.0 0.00 0.00 0.00 88 1011.1
20220119114549 63 253 0.0 3.0 0.00 0.00 0.00 88 1011.1
20220119114045 63 253 1.0 6.0 0.00 0.00 0.00 88 1011.2
20220119113546 64 253 1.0 6.0 0.00 0.00 0.00 88 1011.2
20220119113047 64 229 1.0 8.0 0.00 0.00 0.00 88 1011.1
20220119112549 64 227 1.0 8.0 0.00 0.00 0.00 88 1011.1
20220119112050 64 214 1.0 6.0 0.00 0.00 0.00 88 1011.1
20220119111546 64 223 1.0 6.0 0.00 0.00 0.00 88 1010.9
20220119111044 64 219 1.0 5.0 0.00 0.00 0.00 88 1011.0
20220119110545 64 219 1.0 5.0 0.00 0.00 0.00 88 1010.8
20220119110038 64 219 1.0 4.0 0.00 0.00 0.00 88 1010.9
20220119105538 63 219 1.0 5.0 0.00 0.00 0.00 88 1010.8
20220119105042 63 217 1.0 5.0 0.00 0.00 0.00 88 1010.6
20220119104537 63 217 1.0 4.0 0.00 0.00 0.00 88 1010.6
20220119104037 63 217 1.0 4.0 0.00 0.00 0.00 88 1010.6
20220119103539 63 216 1.0 4.0 0.00 0.00 0.00 89 1010.9
20220119103037 63 216 1.0 4.0 0.00 0.00 0.00 89 1010.9
20220119102534 63 220 1.0 4.0 0.00 0.00 0.00 89 1011.0
20220119102041 63 225 1.0 4.0 0.00 0.00 0.00 89 1010.9
20220119101536 63 227 1.0 4.0 0.00 0.00 0.00 89 1011.0
20220119101036 62 229 0.0 4.0 0.00 0.00 0.00 89 1010.8
20220119100532 62 229 1.0 4.0 0.00 0.00 0.00 89 1010.8
20220119100032 62 228 1.0 4.0 0.00 0.00 0.00 89 1010.8
20220119095530 62 163 0.0 3.0 0.00 0.00 0.00 89 1010.9
20220119095022 62 160 0.0 3.0 0.00 0.00 0.00 90 1010.9
20220119094519 62 159 0.0 4.0 0.00 0.00 0.00 90 1011.0
20220119094018 61 159 0.0 4.0 0.00 0.00 0.00 90 1011.0
20220119093515 61 159 0.0 4.0 0.00 0.00 0.00 90 1011.0
20220119093012 61 159 0.0 4.0 0.00 0.00 0.00 90 1011.0
20220119092512 61 157 0.0 2.0 0.00 0.00 0.00 90 1011.0
20220119092015 61 157 0.0 3.0 0.00 0.00 0.00 90 1011.1
20220119091513 60 157 0.0 3.0 0.00 0.00 0.00 90 1011.0
20220119091015 60 157 0.0 2.0 0.00 0.00 0.00 90 1011.1
20220119090509 60 157 0.0 1.0 0.00 0.00 0.00 90 1011.1
20220119090009 60 157 0.0 1.0 0.00 0.00 0.00 90 1011.1
20220119085504 60 157 0.0 3.0 0.00 0.00 0.00 90 1011.1
20220119085015 60 157 0.0 3.0 0.00 0.00 0.00 90 1011.2
20220119084508 59 157 0.0 1.0 0.00 0.00 0.00 90 1011.2
20220119084000 59 157 0.0 1.0 0.00 0.00 0.00 90 1011.2
20220119083457 59 156 0.0 2.0 0.00 0.00 0.00 90 1011.3
20220119082958 59 156 0.0 2.0 0.00 0.00 0.00 90 1011.5
20220119082447 58 156 0.0 1.0 0.00 0.00 0.00 90 1011.4
20220119081942 58 156 0.0 0.0 0.00 0.00 0.00 89 1011.4
20220119081438 58 156 0.0 0.0 0.00 0.00 0.00 89 1011.6
20220119080938 58 156 0.0 0.0 0.00 0.00 0.00 89 1011.8
20220119080438 58 156 0.0 1.0 0.00 0.00 0.00 89 1011.8
20220119075938 58 156 0.0 2.0 0.00 0.00 0.00 89 1011.7
20220119075438 58 156 0.0 2.0 0.00 0.00 0.00 89 1011.7
20220119074938 58 156 0.0 1.0 0.00 0.00 0.00 89 1011.8
20220119074436 58 156 0.0 0.0 0.00 0.00 0.00 88 1012.0
20220119073932 58 156 0.0 2.0 0.00 0.00 0.00 88 1011.9
20220119073432 58 155 0.0 2.0 0.00 0.00 0.00 88 1012.1
20220119072932 58 155 0.0 1.0 0.00 0.00 0.00 88 1012.0
20220119072436 58 155 0.0 1.0 0.00 0.00 0.00 88 1011.8
20220119071936 59 155 0.0 2.0 0.00 0.00 0.00 88 1011.8
20220119071431 59 155 0.0 2.0 0.00 0.00 0.00 88 1011.9
20220119070928 59 155 0.0 1.0 0.00 0.00 0.00 88 1012.1
20220119070424 59 155 0.0 2.0 0.00 0.00 0.00 87 1012.2
20220119065914 59 155 0.0 2.0 0.00 0.00 0.00 87 1012.0
20220119065408 59 155 0.0 0.0 0.00 0.00 0.00 87 1012.2
20220119064906 59 155 0.0 1.0 0.00 0.00 0.00 86 1012.1
20220119064406 59 155 0.0 1.0 0.00 0.00 0.00 86 1012.1
20220119063905 60 153 0.0 1.0 0.00 0.00 0.00 86 1012.0
20220119063405 60 153 0.0 1.0 0.00 0.00 0.00 86 1012.1
20220119062906 60 153 0.0 2.0 0.00 0.00 0.00 86 1012.1
20220119062402 60 153 0.0 2.0 0.00 0.00 0.00 86 1012.1
20220119061902 60 153 0.0 3.0 0.00 0.00 0.00 86 1012.2
20220119061405 60 153 0.0 3.0 0.00 0.00 0.00 85 1012.3
20220119060903 60 153 0.0 1.0 0.00 0.00 0.00 85 1012.3
20220119060400 60 153 0.0 1.0 0.00 0.00 0.00 85 1012.3
20220119055903 60 153 0.0 1.0 0.00 0.00 0.00 85 1012.3
20220119055358 60 153 0.0 2.0 0.00 0.00 0.00 84 1012.3
20220119054858 61 153 0.0 2.0 0.00 0.00 0.00 84 1012.4
20220119054359 61 153 0.0 2.0 0.00 0.00 0.00 84 1012.3
20220119053852 61 153 0.0 2.0 0.00 0.00 0.00 84 1012.4
20220119053346 61 153 0.0 2.0 0.00 0.00 0.00 84 1012.4
20220119052841 61 153 0.0 2.0 0.00 0.00 0.00 83 1012.4
20220119052342 61 153 0.0 2.0 0.00 0.00 0.00 83 1012.4
20220119051843 61 153 0.0 2.0 0.00 0.00 0.00 83 1012.4
20220119051343 61 153 0.0 1.0 0.00 0.00 0.00 82 1012.4
20220119050842 62 152 0.0 3.0 0.00 0.00 0.00 81 1012.4
20220119050341 62 152 0.0 4.0 0.00 0.00 0.00 81 1012.3
20220119045843 62 152 1.0 4.0 0.00 0.00 0.00 81 1012.3
20220119045342 62 152 1.0 4.0 0.00 0.00 0.00 80 1012.2
20220119044839 62 152 0.0 4.0 0.00 0.00 0.00 80 1012.2
20220119044338 62 152 0.0 4.0 0.00 0.00 0.00 79 1012.2
20220119043837 62 144 0.0 3.0 0.00 0.00 0.00 79 1012.2
20220119043337 62 144 1.0 5.0 0.00 0.00 0.00 78 1012.1
20220119042835 62 144 1.0 5.0 0.00 0.00 0.00 78 1012.1
20220119042325 62 200 0.0 3.0 0.00 0.00 0.00 78 1012.0
20220119041824 63 204 1.0 4.0 0.00 0.00 0.00 77 1012.0
20220119041317 63 208 1.0 5.0 0.00 0.00 0.00 76 1012.0
20220119040816 63 208 1.0 5.0 0.00 0.00 0.00 76 1012.0
20220119040313 63 157 1.0 5.0 0.00 0.00 0.00 75 1011.9
20220119035813 63 159 1.0 7.0 0.00 0.00 0.00 74 1011.9
20220119035314 63 221 0.0 7.0 0.00 0.00 0.00 73 1011.9
20220119034814 63 140 1.0 5.0 0.00 0.00 0.00 72 1011.9
20220119034314 63 140 1.0 5.0 0.00 0.00 0.00 72 1011.8
20220119033807 63 240 1.0 5.0 0.00 0.00 0.00 71 1011.7
20220119033308 64 159 1.0 7.0 0.00 0.00 0.00 70 1011.9
20220119032807 64 161 2.0 7.0 0.00 0.00 0.00 69 1011.7
20220119032306 64 150 1.0 7.0 0.00 0.00 0.00 68 1011.8
20220119031803 64 163 1.0 7.0 0.00 0.00 0.00 67 1011.7
20220119031303 64 162 1.0 7.0 0.00 0.00 0.00 66 1011.6
20220119030802 64 196 2.0 6.0 0.00 0.00 0.00 66 1011.6
20220119030257 64 191 1.0 5.0 0.00 0.00 0.00 65 1011.6
20220119025751 65 207 1.0 5.0 0.00 0.00 0.00 64 1011.6
20220119025246 65 184 0.0 3.0 0.00 0.00 0.00 63 1011.4
20220119024745 65 184 1.0 4.0 0.00 0.00 0.00 62 1011.4
20220119024245 65 184 1.0 4.0 0.00 0.00 0.00 62 1011.4
20220119023744 65 183 1.0 4.0 0.00 0.00 0.00 61 1011.3
20220119023243 65 183 1.0 4.0 0.00 0.00 0.00 60 1011.2
20220119022747 66 198 1.0 5.0 0.00 0.00 0.00 60 1011.2
20220119022244 66 198 1.0 5.0 0.00 0.00 0.00 60 1011.2
20220119021743 66 198 2.0 6.0 0.00 0.00 0.00 59 1011.2
20220119021243 66 240 2.0 6.0 0.00 0.00 0.00 59 1011.1
20220119020744 67 221 2.0 6.0 0.00 0.00 0.00 58 1011.0
20220119020241 67 221 1.0 7.0 0.00 0.00 0.00 58 1010.9
20220119015741 67 178 1.0 7.0 0.00 0.00 0.00 58 1010.9
20220119015240 67 220 2.0 6.0 0.00 0.00 0.00 57 1010.8
20220119014744 67 217 2.0 7.0 0.00 0.00 0.00 57 1010.6
20220119014239 67 188 3.0 7.0 0.00 0.00 0.00 57 1010.8
20220119013737 67 224 3.0 9.0 0.00 0.00 0.00 57 1010.6
20220119013238 67 244 3.0 9.0 0.00 0.00 0.00 58 1010.5
20220119012738 67 178 3.0 8.0 0.00 0.00 0.00 58 1010.5
20220119012233 67 220 2.0 7.0 0.00 0.00 0.00 58 1010.5
20220119011746 67 174 2.0 11.0 0.00 0.00 0.00 58 1010.3
20220119011232 67 223 2.0 11.0 0.00 0.00 0.00 57 1010.4
20220119010739 67 225 1.0 7.0 0.00 0.00 0.00 57 1010.4
20220119010231 67 226 1.0 7.0 0.00 0.00 0.00 57 1010.4
20220119005731 67 242 1.0 5.0 0.00 0.00 0.00 58 1010.3
20220119005230 67 246 1.0 4.0 0.00 0.00 0.00 58 1010.3
20220119004726 66 249 0.0 4.0 0.00 0.00 0.00 57 1010.2
20220119004218 67 249 0.0 5.0 0.00 0.00 0.00 57 1010.1
20220119003715 67 249 0.0 6.0 0.00 0.00 0.00 57 1010.1
20220119003206 67 259 0.0 6.0 0.00 0.00 0.00 57 1010.0
20220119002707 67 188 0.0 2.0 0.00 0.00 0.00 56 1010.0
20220119002205 67 188 0.0 3.0 0.00 0.00 0.00 55 1010.0
20220119001718 68 188 0.0 4.0 0.00 0.00 0.00 54 1009.9
20220119001203 68 188 1.0 4.0 0.00 0.00 0.00 54 1009.9
20220119000702 69 186 1.0 7.0 0.00 0.00 0.00 53 1009.8
20220119000214 69 190 1.0 7.0 0.00 0.00 0.00 52 1009.9
20220118235702 69 188 2.0 6.0 0.00 0.00 0.00 52 1009.9
20220118235201 70 209 2.0 6.0 0.00 0.00 0.00 51 1010.0
20220118234701 70 225 3.0 6.0 0.00 0.00 0.00 50 1009.9
20220118234158 70 179 3.0 8.0 0.00 0.00 0.00 50 1010.0
20220118233658 71 160 4.0 10.0 0.00 0.00 0.00 49 1010.0
20220118233150 71 210 4.0 11.0 0.00 0.00 0.00 48 1010.0
20220118232645 71 206 3.0 11.0 0.00 0.00 0.00 48 1010.0
20220118232144 72 201 3.0 9.0 0.00 0.00 0.00 47 1010.1
20220118231632 73 174 2.0 7.0 0.00 0.00 0.00 46 1010.1
20220118231127 73 223 3.0 7.0 0.00 0.00 0.00 46 1010.2
20220118230620 73 220 3.0 7.0 0.00 0.00 0.00 46 1010.2
20220118230128 74 116 3.0 7.0 0.00 0.00 0.00 45 1010.3
20220118225612 74 219 3.0 7.0 0.00 0.00 0.00 44 1010.3
20220118225106 74 176 3.0 8.0 0.00 0.00 0.00 44 1010.4
20220118224557 74 196 3.0 7.0 0.00 0.00 0.00 44 1010.3
20220118224051 74 179 3.0 10.0 0.00 0.00 0.00 43 1010.3
20220118223545 74 196 3.0 10.0 0.00 0.00 0.00 43 1010.3
20220118223039 74 217 4.0 9.0 0.00 0.00 0.00 43 1010.4
20220118222532 74 253 4.0 9.0 0.00 0.00 0.00 43 1010.5
20220118222027 75 213 4.0 12.0 0.00 0.00 0.00 42 1010.5
20220118221521 75 217 3.0 12.0 0.00 0.00 0.00 42 1010.6
20220118221017 74 214 3.0 8.0 0.00 0.00 0.00 43 1010.6
20220118220513 74 173 3.0 8.0 0.00 0.00 0.00 43 1010.8
20220118220003 73 209 3.0 10.0 0.00 0.00 0.00 44 1010.6
20220118215458 73 135 3.0 10.0 0.00 0.00 0.00 43 1010.8
20220118214953 73 145 4.0 11.0 0.00 0.00 0.00 43 1010.8
20220118214445 74 217 5.0 11.0 0.00 0.00 0.00 43 1010.6
20220118213938 75 231 4.0 10.0 0.00 0.00 0.00 41 1010.8
20220118213433 75 240 4.0 11.0 0.00 0.00 0.00 42 1010.8
20220118212928 75 200 4.0 11.0 0.00 0.00 0.00 41 1010.8
20220118212428 75 233 4.0 8.0 0.00 0.00 0.00 42 1010.9
20220118211915 75 219 3.0 8.0 0.00 0.00 0.00 43 1010.9
20220118211414 75 168 3.0 9.0 0.00 0.00 0.00 43 1011.0
20220118210902 75 214 4.0 9.0 0.00 0.00 0.00 42 1011.0
20220118210356 75 213 4.0 10.0 0.00 0.00 0.00 43 1011.1
20220118205850 75 128 5.0 14.0 0.00 0.00 0.00 43 1011.0
20220118205345 74 129 4.0 14.0 0.00 0.00 0.00 45 1011.2
20220118204840 74 200 5.0 11.0 0.00 0.00 0.00 46 1011.2
20220118204332 74 205 5.0 10.0 0.00 0.00 0.00 46 1011.2
20220118203827 74 167 4.0 11.0 0.00 0.00 0.00 47 1011.2